| time (UTC) | temp C | wind direction | speed KPH | gust KPH | rain 1hr cm | rain 24hr cm | rain mn cm | humidity % | barometer mb |
| 20260506222627 | 21 | 339 | 19.3 | 30.6 | 0.00 | 0.00 | 0.00 | 78 | 1012.1 |
| 20260506222125 | 21 | 6 | 17.7 | 30.6 | 0.00 | 0.00 | 0.00 | 78 | 1012.3 |
| 20260506221630 | 21 | 340 | 16.1 | 30.6 | 0.00 | 0.00 | 0.00 | 77 | 1012.2 |
| 20260506221137 | 21 | 335 | 16.1 | 29.0 | 0.00 | 0.00 | 0.00 | 77 | 1012.2 |
| 20260506220637 | 21 | 353 | 11.3 | 33.8 | 0.00 | 0.00 | 0.00 | 78 | 1011.9 |
| 20260506220117 | 22 | 335 | 19.3 | 33.8 | 0.00 | 0.00 | 0.00 | 77 | 1012.1 |
| 20260506215614 | 22 | 10 | 14.5 | 29.0 | 0.00 | 0.00 | 0.00 | 78 | 1012.2 |
| 20260506215209 | 22 | 10 | 16.1 | 30.6 | 0.00 | 0.00 | 0.00 | 78 | 1012.2 |
| 20260506214707 | 22 | 5 | 19.3 | 30.6 | 0.00 | 0.00 | 0.00 | 77 | 1012.3 |
| 20260506214206 | 22 | 31 | 14.5 | 25.7 | 0.00 | 0.00 | 0.00 | 78 | 1012.2 |
| 20260506213615 | 22 | 317 | 12.9 | 25.7 | 0.00 | 0.00 | 0.00 | 78 | 1012.0 |
| 20260506213115 | 22 | 15 | 12.9 | 25.7 | 0.00 | 0.00 | 0.00 | 78 | 1011.8 |
| 20260506212716 | 23 | 350 | 17.7 | 32.2 | 0.00 | 0.00 | 0.00 | 78 | 1011.8 |
| 20260506212152 | 23 | 1 | 12.9 | 32.2 | 0.00 | 0.00 | 0.00 | 78 | 1011.8 |
| 20260506211700 | 23 | 15 | 14.5 | 25.7 | 0.00 | 0.00 | 0.00 | 77 | 1011.9 |
| 20260506210710 | 23 | 47 | 16.1 | 32.2 | 0.00 | 0.00 | 0.00 | 78 | 1011.9 |
| 20260506210144 | 23 | 359 | 16.1 | 29.0 | 0.00 | 0.00 | 0.00 | 78 | 1011.8 |
| 20260506205641 | 24 | 357 | 11.3 | 24.1 | 0.00 | 0.00 | 0.00 | 80 | 1011.8 |
| 20260506205136 | 23 | 355 | 12.9 | 29.0 | 0.00 | 0.00 | 0.00 | 79 | 1011.8 |
| 20260506204653 | 23 | 34 | 14.5 | 29.0 | 0.00 | 0.00 | 0.00 | 79 | 1011.8 |
| 20260506204149 | 24 | 350 | 12.9 | 30.6 | 0.00 | 0.00 | 0.00 | 80 | 1011.8 |
| 20260506203707 | 23 | 20 | 16.1 | 30.6 | 0.00 | 0.00 | 0.00 | 80 | 1011.6 |
| 20260506203118 | 23 | 344 | 16.1 | 29.0 | 0.00 | 0.00 | 0.00 | 81 | 1011.9 |
| 20260506202638 | 23 | 39 | 17.7 | 29.0 | 0.00 | 0.00 | 0.00 | 81 | 1011.9 |
| 20260506202134 | 23 | 37 | 19.3 | 29.0 | 0.00 | 0.00 | 0.00 | 81 | 1011.9 |
| 20260506201650 | 23 | 340 | 17.7 | 32.2 | 0.00 | 0.00 | 0.00 | 81 | 1012.0 |
| 20260506201143 | 23 | 35 | 19.3 | 33.8 | 0.00 | 0.00 | 0.00 | 80 | 1012.0 |
| 20260506200643 | 24 | 352 | 22.5 | 40.2 | 0.00 | 0.00 | 0.00 | 78 | 1012.0 |
| 20260506200142 | 26 | 355 | 16.1 | 40.2 | 0.00 | 0.00 | 0.00 | 82 | 1012.0 |
| 20260506195639 | 26 | 25 | 6.4 | 17.7 | 0.00 | 0.00 | 0.00 | 82 | 1011.7 |
| 20260506195135 | 26 | 353 | 6.4 | 14.5 | 0.00 | 0.00 | 0.00 | 83 | 1011.5 |
| 20260506194633 | 26 | 28 | 11.3 | 24.1 | 0.00 | 0.00 | 0.00 | 83 | 1011.4 |
| 20260506194217 | 26 | 97 | 11.3 | 24.1 | 0.00 | 0.00 | 0.00 | 83 | 1011.3 |
| 20260506193710 | 26 | 124 | 1.6 | 6.4 | 0.00 | 0.00 | 0.00 | 84 | 1011.4 |
| 20260506193121 | 26 | 10 | 1.6 | 6.4 | 0.00 | 0.00 | 0.00 | 85 | 1011.4 |
| 20260506192626 | 26 | 174 | 0.0 | 3.2 | 0.00 | 0.00 | 0.00 | 86 | 1011.5 |
| 20260506192206 | 26 | 174 | 0.0 | 3.2 | 0.00 | 0.00 | 0.00 | 85 | 1011.4 |
| 20260506191150 | 25 | 154 | 1.6 | 9.7 | 0.00 | 0.00 | 0.00 | 86 | 1011.6 |
| 20260506190150 | 25 | 236 | 1.6 | 4.8 | 0.00 | 0.00 | 0.00 | 87 | 1011.8 |
| 20260506185645 | 25 | 236 | 0.0 | 0.0 | 0.00 | 0.00 | 0.00 | 87 | 1011.8 |
| 20260506185228 | 24 | 236 | 0.0 | 0.0 | 0.00 | 0.00 | 0.00 | 87 | 1011.7 |
| 20260506184704 | 24 | 236 | 0.0 | 3.2 | 0.00 | 0.00 | 0.00 | 88 | 1011.7 |
| 20260506184113 | 24 | 236 | 1.6 | 8.0 | 0.00 | 0.00 | 0.00 | 87 | 1011.8 |
| 20260506183715 | 24 | 236 | 4.8 | 8.0 | 0.00 | 0.00 | 0.00 | 87 | 1012.0 |
| 20260506183153 | 23 | 237 | 8.0 | 9.7 | 0.00 | 0.00 | 0.00 | 87 | 1012.2 |
| 20260506182651 | 23 | 237 | 8.0 | 9.7 | 0.00 | 0.00 | 0.00 | 87 | 1012.1 |
| 20260506182144 | 23 | 236 | 8.0 | 11.3 | 0.00 | 0.00 | 0.00 | 87 | 1012.1 |
| 20260506181647 | 23 | 253 | 9.7 | 14.5 | 0.00 | 0.00 | 0.00 | 87 | 1012.1 |
| 20260506181141 | 23 | 254 | 11.3 | 14.5 | 0.00 | 0.00 | 0.00 | 87 | 1012.2 |
| 20260506180200 | 23 | 240 | 9.7 | 11.3 | 0.00 | 0.00 | 0.00 | 88 | 1012.2 |
| 20260506175700 | 23 | 221 | 9.7 | 11.3 | 0.00 | 0.00 | 0.00 | 87 | 1012.2 |
| 20260506175212 | 23 | 227 | 1.6 | 8.0 | 0.00 | 0.00 | 0.00 | 87 | 1012.2 |
| 20260506174707 | 23 | 269 | 4.8 | 9.7 | 0.00 | 0.00 | 0.00 | 87 | 1012.4 |
| 20260506174142 | 23 | 216 | 8.0 | 9.7 | 0.00 | 0.00 | 0.00 | 87 | 1012.4 |
| 20260506173645 | 23 | 178 | 0.0 | 9.7 | 0.00 | 0.00 | 0.00 | 88 | 1012.2 |
| 20260506173145 | 22 | 47 | 1.6 | 11.3 | 0.00 | 0.00 | 0.00 | 88 | 1012.4 |
| 20260506172645 | 22 | 47 | 8.0 | 14.5 | 0.00 | 0.00 | 0.00 | 87 | 1012.8 |
| 20260506172144 | 22 | 56 | 8.0 | 16.1 | 0.00 | 0.00 | 0.00 | 87 | 1012.7 |
| 20260506171619 | 22 | 41 | 11.3 | 19.3 | 0.00 | 0.00 | 0.00 | 87 | 1012.8 |
| 20260506171121 | 22 | 347 | 9.7 | 16.1 | 0.00 | 0.00 | 0.00 | 87 | 1012.6 |
| 20260506170642 | 22 | 39 | 8.0 | 19.3 | 0.00 | 0.00 | 0.00 | 87 | 1012.7 |
| 20260506170139 | 22 | 15 | 12.9 | 25.7 | 0.00 | 0.00 | 0.00 | 86 | 1012.8 |
| 20260506165635 | 23 | 360 | 17.7 | 25.7 | 0.00 | 0.00 | 0.00 | 85 | 1012.9 |
| 20260506165150 | 25 | 10 | 9.7 | 20.9 | 0.00 | 0.00 | 0.00 | 88 | 1012.9 |
| 20260506164646 | 25 | 74 | 3.2 | 9.7 | 0.00 | 0.00 | 0.00 | 88 | 1012.8 |
| 20260506164144 | 25 | 88 | 3.2 | 12.9 | 0.00 | 0.00 | 0.00 | 88 | 1012.8 |
| 20260506163638 | 25 | 93 | 8.0 | 12.9 | 0.00 | 0.00 | 0.00 | 88 | 1012.9 |
| 20260506162709 | 25 | 111 | 11.3 | 16.1 | 0.00 | 0.00 | 0.00 | 89 | 1012.8 |
| 20260506162159 | 25 | 115 | 9.7 | 14.5 | 0.00 | 0.00 | 0.00 | 89 | 1012.8 |
| 20260506161639 | 24 | 70 | 9.7 | 14.5 | 0.00 | 0.00 | 0.00 | 89 | 1012.8 |
| 20260506161143 | 24 | 104 | 8.0 | 11.3 | 0.00 | 0.00 | 0.00 | 89 | 1012.8 |
| 20260506160622 | 24 | 86 | 6.4 | 9.7 | 0.00 | 0.00 | 0.00 | 89 | 1012.8 |
| 20260506160223 | 24 | 107 | 1.6 | 9.7 | 0.00 | 0.00 | 0.00 | 89 | 1012.9 |
| 20260506155123 | 24 | 111 | 6.4 | 8.0 | 0.00 | 0.00 | 0.00 | 90 | 1012.8 |
| 20260506154623 | 24 | 111 | 0.0 | 6.4 | 0.00 | 0.00 | 0.00 | 90 | 1012.7 |
| 20260506154122 | 23 | 111 | 1.6 | 8.0 | 0.00 | 0.00 | 0.00 | 90 | 1012.6 |
| 20260506153628 | 23 | 111 | 4.8 | 8.0 | 0.00 | 0.00 | 0.00 | 90 | 1012.6 |
| 20260506153232 | 23 | 118 | 3.2 | 9.7 | 0.00 | 0.00 | 0.00 | 90 | 1012.4 |
| 20260506152650 | 23 | 119 | 4.8 | 9.7 | 0.00 | 0.00 | 0.00 | 90 | 1012.4 |
| 20260506152145 | 23 | 124 | 0.0 | 11.3 | 0.00 | 0.00 | 0.00 | 90 | 1012.1 |
| 20260506151210 | 23 | 126 | 8.0 | 11.3 | 0.00 | 0.00 | 0.00 | 90 | 1011.9 |
| 20260506150626 | 23 | 115 | 3.2 | 8.0 | 0.00 | 0.00 | 0.00 | 90 | 1011.7 |
| 20260506150142 | 23 | 104 | 4.8 | 11.3 | 0.00 | 0.00 | 0.00 | 90 | 1011.9 |
| 20260506145733 | 23 | 123 | 6.4 | 11.3 | 0.00 | 0.00 | 0.00 | 90 | 1011.9 |
| 20260506145204 | 23 | 122 | 1.6 | 6.4 | 0.00 | 0.00 | 0.00 | 90 | 1011.9 |
| 20260506144638 | 23 | 122 | 0.0 | 1.6 | 0.00 | 0.00 | 0.00 | 90 | 1011.7 |
| 20260506144135 | 23 | 122 | 0.0 | 1.6 | 0.00 | 0.00 | 0.00 | 90 | 1011.8 |
| 20260506143616 | 23 | 122 | 0.0 | 1.6 | 0.00 | 0.00 | 0.00 | 90 | 1011.8 |
| 20260506143152 | 23 | 122 | 0.0 | 3.2 | 0.00 | 0.00 | 0.00 | 90 | 1011.7 |
| 20260506142650 | 23 | 122 | 1.6 | 3.2 | 0.00 | 0.00 | 0.00 | 90 | 1011.7 |
| 20260506142146 | 23 | 122 | 1.6 | 3.2 | 0.00 | 0.00 | 0.00 | 90 | 1011.8 |
| 20260506141640 | 23 | 137 | 1.6 | 3.2 | 0.00 | 0.00 | 0.00 | 90 | 1011.8 |
| 20260506141142 | 23 | 149 | 0.0 | 6.4 | 0.00 | 0.00 | 0.00 | 90 | 1011.6 |
| 20260506140700 | 23 | 149 | 1.6 | 8.0 | 0.00 | 0.00 | 0.00 | 90 | 1011.5 |
| 20260506140159 | 23 | 151 | 1.6 | 9.7 | 0.00 | 0.00 | 0.00 | 90 | 1011.3 |
| 20260506135651 | 23 | 151 | 8.0 | 11.3 | 0.00 | 0.00 | 0.00 | 90 | 1011.0 |
| 20260506135203 | 23 | 150 | 8.0 | 14.5 | 0.00 | 0.00 | 0.00 | 90 | 1010.7 |
| 20260506134654 | 23 | 146 | 11.3 | 14.5 | 0.00 | 0.00 | 0.00 | 90 | 1010.9 |
| 20260506134129 | 23 | 130 | 11.3 | 14.5 | 0.00 | 0.00 | 0.00 | 90 | 1010.7 |
| 20260506133628 | 23 | 147 | 11.3 | 12.9 | 0.00 | 0.00 | 0.00 | 90 | 1010.6 |
| 20260506133126 | 23 | 132 | 9.7 | 12.9 | 0.00 | 0.00 | 0.00 | 90 | 1010.6 |
| 20260506132644 | 23 | 135 | 9.7 | 16.1 | 0.00 | 0.00 | 0.00 | 90 | 1010.5 |
| 20260506132229 | 23 | 144 | 9.7 | 16.1 | 0.00 | 0.00 | 0.00 | 91 | 1010.5 |
| 20260506131703 | 23 | 138 | 9.7 | 12.9 | 0.00 | 0.00 | 0.00 | 91 | 1010.6 |
| 20260506131200 | 23 | 134 | 9.7 | 12.9 | 0.00 | 0.00 | 0.00 | 91 | 1010.4 |
| 20260506130654 | 23 | 136 | 11.3 | 12.9 | 0.00 | 0.00 | 0.00 | 91 | 1010.2 |
| 20260506130230 | 23 | 106 | 11.3 | 14.5 | 0.00 | 0.00 | 0.00 | 91 | 1010.4 |
| 20260506125720 | 23 | 137 | 9.7 | 12.9 | 0.00 | 0.00 | 0.00 | 91 | 1010.3 |
| 20260506125207 | 23 | 124 | 9.7 | 11.3 | 0.00 | 0.00 | 0.00 | 91 | 1010.3 |
| 20260506124708 | 23 | 132 | 9.7 | 11.3 | 0.00 | 0.00 | 0.00 | 91 | 1010.4 |
| 20260506124146 | 23 | 141 | 9.7 | 11.3 | 0.00 | 0.00 | 0.00 | 91 | 1010.3 |
| 20260506123640 | 23 | 128 | 8.0 | 11.3 | 0.00 | 0.00 | 0.00 | 90 | 1010.3 |
| 20260506122711 | 23 | 124 | 8.0 | 9.7 | 0.00 | 0.00 | 0.00 | 90 | 1010.3 |
| 20260506122206 | 23 | 139 | 8.0 | 9.7 | 0.00 | 0.00 | 0.00 | 90 | 1010.4 |
| 20260506121624 | 23 | 139 | 6.4 | 9.7 | 0.00 | 0.00 | 0.00 | 90 | 1010.3 |
| 20260506121129 | 23 | 136 | 8.0 | 9.7 | 0.00 | 0.00 | 0.00 | 90 | 1010.3 |
| 20260506120625 | 23 | 133 | 8.0 | 11.3 | 0.00 | 0.00 | 0.00 | 90 | 1010.4 |
| 20260506120137 | 23 | 157 | 8.0 | 11.3 | 0.00 | 0.00 | 0.00 | 90 | 1010.2 |
| 20260506115638 | 23 | 147 | 8.0 | 9.7 | 0.00 | 0.00 | 0.00 | 90 | 1010.2 |
| 20260506115139 | 23 | 161 | 6.4 | 9.7 | 0.00 | 0.00 | 0.00 | 90 | 1010.2 |
| 20260506114643 | 23 | 155 | 4.8 | 9.7 | 0.00 | 0.00 | 0.00 | 90 | 1010.2 |
| 20260506114145 | 23 | 150 | 8.0 | 9.7 | 0.00 | 0.00 | 0.00 | 90 | 1010.1 |
| 20260506113621 | 23 | 155 | 8.0 | 9.7 | 0.00 | 0.00 | 0.00 | 90 | 1010.1 |
| 20260506113122 | 23 | 163 | 4.8 | 9.7 | 0.00 | 0.00 | 0.00 | 90 | 1010.0 |
| 20260506112632 | 23 | 164 | 6.4 | 9.7 | 0.00 | 0.00 | 0.00 | 90 | 1010.0 |
| 20260506112218 | 23 | 161 | 6.4 | 9.7 | 0.00 | 0.00 | 0.00 | 90 | 1010.1 |
| 20260506111642 | 23 | 162 | 6.4 | 9.7 | 0.00 | 0.00 | 0.00 | 90 | 1010.0 |
| 20260506111144 | 23 | 162 | 8.0 | 9.7 | 0.00 | 0.00 | 0.00 | 90 | 1009.7 |
| 20260506110648 | 23 | 165 | 8.0 | 9.7 | 0.00 | 0.00 | 0.00 | 90 | 1010.0 |
| 20260506110147 | 23 | 188 | 6.4 | 9.7 | 0.00 | 0.00 | 0.00 | 90 | 1010.1 |
| 20260506105127 | 23 | 161 | 9.7 | 12.9 | 0.00 | 0.00 | 0.00 | 90 | 1009.8 |
| 20260506104624 | 23 | 168 | 8.0 | 9.7 | 0.00 | 0.00 | 0.00 | 90 | 1009.7 |
| 20260506104123 | 23 | 176 | 8.0 | 14.5 | 0.00 | 0.00 | 0.00 | 90 | 1009.8 |
| 20260506103620 | 23 | 165 | 9.7 | 14.5 | 0.00 | 0.00 | 0.00 | 90 | 1009.8 |
| 20260506103118 | 23 | 182 | 9.7 | 14.5 | 0.00 | 0.00 | 0.00 | 90 | 1009.9 |
| 20260506102618 | 23 | 187 | 11.3 | 16.1 | 0.00 | 0.00 | 0.00 | 90 | 1009.8 |
| 20260506102116 | 23 | 186 | 11.3 | 16.1 | 0.00 | 0.00 | 0.00 | 90 | 1009.9 |
| 20260506101701 | 23 | 182 | 9.7 | 12.9 | 0.00 | 0.00 | 0.00 | 90 | 1009.8 |
| 20260506100622 | 23 | 186 | 11.3 | 14.5 | 0.00 | 0.00 | 0.00 | 90 | 1009.8 |
| 20260506100205 | 23 | 190 | 11.3 | 14.5 | 0.00 | 0.00 | 0.00 | 90 | 1009.7 |
| 20260506095623 | 23 | 186 | 9.7 | 16.1 | 0.00 | 0.00 | 0.00 | 90 | 1009.6 |
| 20260506095223 | 23 | 188 | 12.9 | 16.1 | 0.00 | 0.00 | 0.00 | 90 | 1009.7 |
| 20260506094612 | 23 | 186 | 11.3 | 14.5 | 0.00 | 0.00 | 0.00 | 90 | 1009.6 |
| 20260506094209 | 23 | 179 | 11.3 | 14.5 | 0.00 | 0.00 | 0.00 | 90 | 1009.4 |
| 20260506093707 | 23 | 182 | 9.7 | 16.1 | 0.00 | 0.00 | 0.00 | 89 | 1009.6 |
| 20260506093205 | 23 | 190 | 11.3 | 16.1 | 0.00 | 0.00 | 0.00 | 89 | 1009.6 |
| 20260506092701 | 23 | 183 | 12.9 | 16.1 | 0.00 | 0.00 | 0.00 | 89 | 1009.4 |
| 20260506092150 | 23 | 175 | 12.9 | 22.5 | 0.00 | 0.00 | 0.00 | 89 | 1009.3 |
| 20260506091644 | 23 | 176 | 16.1 | 22.5 | 0.00 | 0.00 | 0.00 | 90 | 1009.3 |
| 20260506090715 | 23 | 175 | 16.1 | 22.5 | 0.00 | 0.00 | 0.00 | 89 | 1009.3 |
| 20260506090149 | 23 | 186 | 19.3 | 24.1 | 0.00 | 0.00 | 0.00 | 89 | 1009.3 |
| 20260506085645 | 23 | 180 | 19.3 | 29.0 | 0.00 | 0.00 | 0.00 | 89 | 1009.2 |
| 20260506085138 | 23 | 162 | 20.9 | 29.0 | 0.00 | 0.00 | 0.00 | 89 | 1009.3 |
| 20260506084212 | 23 | 184 | 19.3 | 33.8 | 0.00 | 0.00 | 0.00 | 89 | 1009.2 |
| 20260506083649 | 23 | 164 | 17.7 | 25.7 | 0.00 | 0.00 | 0.00 | 89 | 1009.3 |
| 20260506083145 | 23 | 176 | 14.5 | 22.5 | 0.00 | 0.00 | 0.00 | 89 | 1009.3 |
| 20260506082640 | 24 | 184 | 16.1 | 22.5 | 0.00 | 0.00 | 0.00 | 89 | 1009.2 |
| 20260506082118 | 23 | 168 | 16.1 | 20.9 | 0.00 | 0.00 | 0.00 | 89 | 1009.4 |
| 20260506081627 | 24 | 164 | 14.5 | 20.9 | 0.00 | 0.00 | 0.00 | 89 | 1009.4 |
| 20260506081125 | 24 | 178 | 14.5 | 20.9 | 0.00 | 0.00 | 0.00 | 89 | 1009.4 |
| 20260506080632 | 24 | 178 | 12.9 | 16.1 | 0.00 | 0.00 | 0.00 | 89 | 1009.5 |
| 20260506080135 | 24 | 180 | 11.3 | 25.7 | 0.00 | 0.00 | 0.00 | 89 | 1009.5 |
| 20260506073115 | 24 | 174 | 20.9 | 25.7 | 0.00 | 0.00 | 0.00 | 89 | 1009.7 |
| 20260506072613 | 24 | 182 | 17.7 | 25.7 | 0.00 | 0.00 | 0.00 | 89 | 1009.7 |
| 20260506072126 | 24 | 171 | 19.3 | 25.7 | 0.00 | 0.00 | 0.00 | 90 | 1009.8 |
| 20260506071622 | 24 | 172 | 19.3 | 22.5 | 0.00 | 0.00 | 0.00 | 89 | 1009.8 |
| 20260506071124 | 24 | 170 | 14.5 | 22.5 | 0.00 | 0.00 | 0.00 | 89 | 1009.8 |
| 20260506070620 | 24 | 174 | 14.5 | 20.9 | 0.00 | 0.00 | 0.00 | 89 | 1010.0 |
| 20260506070133 | 24 | 176 | 17.7 | 22.5 | 0.00 | 0.00 | 0.00 | 89 | 1010.0 |
| 20260506062119 | 24 | 171 | 16.1 | 22.5 | 0.00 | 0.00 | 0.00 | 89 | 1010.0 |
| 20260506061617 | 24 | 175 | 16.1 | 24.1 | 0.00 | 0.00 | 0.00 | 89 | 1010.0 |
| 20260506061130 | 24 | 159 | 20.9 | 24.1 | 0.00 | 0.00 | 0.00 | 89 | 1010.0 |
| 20260506060624 | 24 | 157 | 20.9 | 29.0 | 0.00 | 0.00 | 0.00 | 89 | 1010.2 |
| 20260506060118 | 24 | 155 | 19.3 | 29.0 | 0.00 | 0.00 | 0.00 | 89 | 1010.1 |
| 20260506051125 | 24 | 151 | 17.7 | 24.1 | 0.00 | 0.00 | 0.00 | 88 | 1010.1 |
| 20260506050619 | 24 | 148 | 16.1 | 25.7 | 0.00 | 0.00 | 0.00 | 88 | 1010.1 |
| 20260506050131 | 24 | 162 | 17.7 | 25.7 | 0.00 | 0.00 | 0.00 | 88 | 1010.0 |
| 20260506044709 | 25 | 154 | 16.1 | 30.6 | 0.00 | 0.00 | 0.00 | 88 | 1010.0 |
| 20260506044205 | 25 | 157 | 19.3 | 30.6 | 0.00 | 0.00 | 0.00 | 88 | 1010.0 |
| 20260506043705 | 25 | 163 | 20.9 | 30.6 | 0.00 | 0.00 | 0.00 | 88 | 1010.0 |
| 20260506043114 | 25 | 149 | 22.5 | 33.8 | 0.00 | 0.00 | 0.00 | 88 | 1009.9 |
| 20260506042611 | 25 | 179 | 25.7 | 33.8 | 0.00 | 0.00 | 0.00 | 88 | 1010.0 |
| 20260506042208 | 25 | 174 | 20.9 | 25.7 | 0.00 | 0.00 | 0.00 | 88 | 1010.0 |
| 20260506041704 | 25 | 156 | 20.9 | 29.0 | 0.00 | 0.00 | 0.00 | 88 | 1010.0 |
| 20260506041201 | 25 | 174 | 24.1 | 29.0 | 0.00 | 0.00 | 0.00 | 88 | 1010.0 |
| 20260506040204 | 25 | 162 | 24.1 | 32.2 | 0.00 | 0.00 | 0.00 | 87 | 1009.9 |
| 20260506035700 | 25 | 166 | 25.7 | 32.2 | 0.00 | 0.00 | 0.00 | 87 | 1009.8 |
| 20260506035155 | 25 | 161 | 16.1 | 20.9 | 0.00 | 0.00 | 0.00 | 87 | 1009.8 |
| 20260506034704 | 25 | 163 | 16.1 | 24.1 | 0.00 | 0.00 | 0.00 | 87 | 1009.6 |
| 20260506034205 | 25 | 167 | 19.3 | 24.1 | 0.00 | 0.00 | 0.00 | 87 | 1009.5 |
| 20260506033644 | 25 | 166 | 17.7 | 24.1 | 0.00 | 0.00 | 0.00 | 87 | 1009.5 |
| 20260506033159 | 25 | 155 | 17.7 | 25.7 | 0.00 | 0.00 | 0.00 | 87 | 1009.4 |
| 20260506032655 | 25 | 165 | 19.3 | 25.7 | 0.00 | 0.00 | 0.00 | 87 | 1009.2 |
| 20260506032217 | 25 | 141 | 19.3 | 25.7 | 0.00 | 0.00 | 0.00 | 86 | 1009.0 |
| 20260506031709 | 25 | 157 | 20.9 | 25.7 | 0.00 | 0.00 | 0.00 | 86 | 1008.9 |
| 20260506031206 | 25 | 157 | 20.9 | 32.2 | 0.00 | 0.00 | 0.00 | 86 | 1009.0 |
| 20260506030710 | 25 | 162 | 22.5 | 32.2 | 0.00 | 0.00 | 0.00 | 86 | 1008.9 |
| 20260506030212 | 25 | 158 | 27.4 | 32.2 | 0.00 | 0.00 | 0.00 | 86 | 1008.8 |
| 20260506025711 | 26 | 157 | 24.1 | 30.6 | 0.00 | 0.00 | 0.00 | 85 | 1008.7 |
| 20260506025210 | 26 | 150 | 19.3 | 25.7 | 0.00 | 0.00 | 0.00 | 85 | 1008.7 |
| 20260506024707 | 26 | 155 | 19.3 | 22.5 | 0.00 | 0.00 | 0.00 | 85 | 1008.7 |
| 20260506024145 | 26 | 146 | 19.3 | 22.5 | 0.00 | 0.00 | 0.00 | 85 | 1008.6 |
| 20260506023210 | 26 | 152 | 19.3 | 24.1 | 0.00 | 0.00 | 0.00 | 84 | 1008.4 |
| 20260506022619 | 26 | 147 | 20.9 | 29.0 | 0.00 | 0.00 | 0.00 | 84 | 1008.2 |
| 20260506022144 | 26 | 148 | 22.5 | 29.0 | 0.00 | 0.00 | 0.00 | 83 | 1008.2 |
| 20260506021659 | 26 | 146 | 22.5 | 29.0 | 0.00 | 0.00 | 0.00 | 83 | 1008.1 |
| 20260506021155 | 26 | 145 | 17.7 | 29.0 | 0.00 | 0.00 | 0.00 | 83 | 1008.2 |
| 20260506020650 | 26 | 138 | 11.3 | 14.5 | 0.00 | 0.00 | 0.00 | 83 | 1008.2 |
| 20260506020147 | 26 | 128 | 11.3 | 14.5 | 0.00 | 0.00 | 0.00 | 82 | 1008.0 |
| 20260506015621 | 26 | 103 | 11.3 | 14.5 | 0.00 | 0.00 | 0.00 | 82 | 1008.0 |
| 20260506015124 | 26 | 104 | 9.7 | 12.9 | 0.00 | 0.00 | 0.00 | 82 | 1007.9 |
| 20260506014620 | 26 | 116 | 11.3 | 12.9 | 0.00 | 0.00 | 0.00 | 82 | 1007.8 |
| 20260506014116 | 26 | 114 | 9.7 | 11.3 | 0.00 | 0.00 | 0.00 | 82 | 1007.7 |
| 20260506013617 | 26 | 113 | 8.0 | 11.3 | 0.00 | 0.00 | 0.00 | 82 | 1007.7 |
| 20260506013201 | 26 | 115 | 8.0 | 11.3 | 0.00 | 0.00 | 0.00 | 82 | 1007.6 |
| 20260506012207 | 27 | 127 | 8.0 | 9.7 | 0.00 | 0.00 | 0.00 | 81 | 1007.5 |
| 20260506011656 | 27 | 128 | 8.0 | 9.7 | 0.00 | 0.00 | 0.00 | 81 | 1007.7 |
| 20260506011131 | 27 | 120 | 8.0 | 11.3 | 0.00 | 0.00 | 0.00 | 81 | 1007.7 |
| 20260506010732 | 27 | 126 | 8.0 | 12.9 | 0.00 | 0.00 | 0.00 | 81 | 1007.6 |
| 20260506010204 | 27 | 133 | 9.7 | 12.9 | 0.00 | 0.00 | 0.00 | 81 | 1007.6 |
| 20260506005207 | 27 | 138 | 9.7 | 11.3 | 0.00 | 0.00 | 0.00 | 82 | 1007.6 |
| 20260506004611 | 26 | 133 | 6.4 | 9.7 | 0.00 | 0.00 | 0.00 | 83 | 1007.7 |
| 20260506004211 | 26 | 166 | 4.8 | 6.4 | 0.00 | 0.00 | 0.00 | 83 | 1007.6 |
| 20260506003704 | 26 | 168 | 4.8 | 6.4 | 0.00 | 0.00 | 0.00 | 82 | 1007.6 |
| 20260506002627 | 26 | 168 | 0.0 | 1.6 | 0.00 | 0.00 | 0.00 | 82 | 1007.6 |
| 20260506002122 | 26 | 168 | 1.6 | 1.6 | 0.00 | 0.00 | 0.00 | 82 | 1007.5 |
| 20260506001724 | 26 | 168 | 0.0 | 6.4 | 0.00 | 0.00 | 0.00 | 82 | 1007.5 |
| 20260506001158 | 26 | 168 | 1.6 | 6.4 | 0.00 | 0.00 | 0.00 | 82 | 1007.5 |
| 20260506000652 | 26 | 168 | 3.2 | 8.0 | 0.00 | 0.00 | 0.00 | 82 | 1007.5 |
| 20260506000151 | 26 | 167 | 4.8 | 9.7 | 0.00 | 0.00 | 0.00 | 81 | 1007.4 |
| 20260505235634 | 26 | 168 | 8.0 | 9.7 | 0.00 | 0.00 | 0.00 | 81 | 1007.5 |
| 20260505235125 | 26 | 176 | 6.4 | 11.3 | 0.00 | 0.00 | 0.00 | 81 | 1007.4 |
| 20260505234623 | 26 | 172 | 8.0 | 14.5 | 0.00 | 0.00 | 0.00 | 81 | 1007.4 |
| 20260505234122 | 27 | 162 | 11.3 | 17.7 | 0.00 | 0.00 | 0.00 | 80 | 1007.2 |
| 20260505233644 | 27 | 166 | 14.5 | 17.7 | 0.00 | 0.00 | 0.00 | 80 | 1007.3 |
| 20260505233142 | 26 | 178 | 12.9 | 14.5 | 0.00 | 0.00 | 0.00 | 80 | 1007.3 |
| 20260505232641 | 27 | 172 | 12.9 | 14.5 | 0.00 | 0.00 | 0.00 | 80 | 1007.2 |
| 20260505232137 | 26 | 165 | 8.0 | 11.3 | 0.00 | 0.00 | 0.00 | 80 | 1007.2 |
| 20260505231650 | 27 | 176 | 6.4 | 12.9 | 0.00 | 0.00 | 0.00 | 80 | 1007.2 |
| 20260505231147 | 27 | 182 | 8.0 | 17.7 | 0.00 | 0.00 | 0.00 | 80 | 1007.1 |
| 20260505230649 | 27 | 178 | 12.9 | 19.3 | 0.00 | 0.00 | 0.00 | 80 | 1007.2 |
| 20260505230215 | 27 | 174 | 12.9 | 19.3 | 0.00 | 0.00 | 0.00 | 80 | 1006.9 |
| 20260505225706 | 27 | 162 | 17.7 | 20.9 | 0.00 | 0.00 | 0.00 | 80 | 1007.0 |
| 20260505225203 | 26 | 172 | 16.1 | 20.9 | 0.00 | 0.00 | 0.00 | 80 | 1006.8 |
| 20260505224658 | 27 | 179 | 14.5 | 22.5 | 0.00 | 0.00 | 0.00 | 80 | 1007.1 |
| 20260505224138 | 26 | 149 | 19.3 | 22.5 | 0.00 | 0.00 | 0.00 | 80 | 1006.9 |
| 20260505223617 | 26 | 159 | 17.7 | 19.3 | 0.00 | 0.00 | 0.00 | 80 | 1007.1 |
| 20260505223138 | 27 | 163 | 12.9 | 17.7 | 0.00 | 0.00 | 0.00 | 80 | 1007.2 |